Guest
แชร์ หัวข้อ โพสต์โดย อ่าน ตอบ โพสต์ล่าสุด
ittichai k. 3,176 14 18/01/2014 10:54:55
rbrabbit 8,306 7 18/01/2014 03:09:42
Momay 1,141 5 18/01/2014 02:37:18
Me4tspin 943 2 18/01/2014 02:25:22
NUTTANICK 1,002 4 18/01/2014 01:01:20
JAS-39 783 1 17/01/2014 23:22:32
nongaloha 699 1 17/01/2014 23:20:37
porparty 827 5 17/01/2014 22:24:42
สมพร 682 2 17/01/2014 22:24:35
มือใหม่หัวใจว้า... 961 4 17/01/2014 22:11:43
taskmasterpp 697 2 17/01/2014 19:25:25
gamonoi 739 2 17/01/2014 17:57:35
satinn 1,425 5 17/01/2014 17:34:27
greeny057 846 1 17/01/2014 17:03:14
soryimlate 977 11 17/01/2014 16:00:42
zlakeaw 979 1 17/01/2014 15:17:48
toot 656 2 17/01/2014 15:14:39
BFMV3003 1,203 22 17/01/2014 13:16:27
nongaloha 819 2 17/01/2014 12:32:40
Parinnut 1,448 3 17/01/2014 09:24:46
Progreso 3,603 6 17/01/2014 08:33:00
hippoeg6 1,092 4 17/01/2014 02:47:27
heavyhex 1,589 19 17/01/2014 02:39:13
wattikorn 891 5 17/01/2014 01:57:31
champ2526 1,078 5 17/01/2014 00:12:00
Bom_baysinton 1,270 5 16/01/2014 23:19:47
flook16comza 1,107 4 16/01/2014 22:55:49
panda14 969 7 16/01/2014 22:25:17
mop01zeez 740 3 16/01/2014 22:23:33
sugarmaple 1,277 6 16/01/2014 22:12:40
Russianoptic 804 3 16/01/2014 19:56:05
punfree 2,918 19 16/01/2014 19:11:29
sommeawaya 754 0 16/01/2014 17:28:56
exxy112112 656 2 16/01/2014 17:19:29
Nickkk 738 2 16/01/2014 17:05:17
taskmasterpp 724 1 16/01/2014 16:18:45
dew22799 1,362 13 16/01/2014 16:05:45
Channpat 1,389 7 16/01/2014 15:50:53
toonmanga 1,031 2 16/01/2014 14:42:03
templeboy92 1,686 30 16/01/2014 14:19:17
สมพงษ์ 8,721 14 16/01/2014 13:44:07
nexus 892 3 16/01/2014 12:08:38
หวัดดีชาวร๊อก 876 4 16/01/2014 11:51:01
sanpasilp 977 2 16/01/2014 11:33:15
headfi 766 1 16/01/2014 11:23:54
sukonthamarn 788 1 16/01/2014 11:22:37
codenameexe 969 6 16/01/2014 11:16:51
Bad Cat Company 829 1 16/01/2014 11:11:30
NookTurboza 993 1 16/01/2014 10:51:23
วาเลนไทน์ 1,225 24 16/01/2014 02:50:28
32,451 - 32,500 of 90,004 items : << 645646647648649650651652653654655 >>

ช่องทางการติดต่ออื่น

  • Munkonggadget
  • Munkonggadget Reviews
  • Munkonggadget Reviews
  • Munkonggadget Contact Us